FW7644 Weather Reports


time (UTC)temp
F
wind
direction
speed
knots
gust
knots
rain 1hr
in
rain 24hr
in
rain mn
in
humidity
%
barometer
mb
20260906041841 50 0.0 0.0 0.02 0.59 0.02 99 1021.2
20260906041339 50 0.0 0.0 0.02 0.59 0.02 99 1021.0
20260906040838 50 0.0 0.0 0.02 0.59 0.02 99 1021.0
20260906040337 50 0.0 0.0 0.01 0.58 0.01 99 1021.0
20260906035835 50 0.0 0.0 0.01 0.58 0.01 99 1021.2
20260906035334 50 0.0 0.0 0.00 0.57 0.00 99 1021.2
20260906034832 51 0.0 0.0 0.00 0.57 0.00 99 1021.3
20260906034331 51 0.0 0.0 0.00 0.57 0.00 99 1021.1
20260906033829 50 0.0 0.0 0.00 0.57 0.00 99 1021.4
20260906033327 51 0.0 0.0 0.00 0.57 0.00 99 1021.5
20260906032826 51 0.0 0.0 0.00 0.57 0.00 99 1021.5
20260906032324 51 0.0 0.0 0.00 0.57 0.00 99 1021.3
20260906031822 51 0.0 0.0 0.00 0.57 0.00 99 1021.4
20260906031321 51 0.0 0.0 0.00 0.57 0.00 99 1021.3
20260906030819 50 0.0 0.0 0.00 0.57 0.00 99 1021.0
20260906030318 50 0.0 0.0 0.00 0.57 0.00 99 1020.7
20260906025816 50 0.0 0.0 0.00 0.61 0.57 99 1021.1
20260906025314 51 0.0 0.0 0.00 0.61 0.57 99 1021.3
20260906024813 51 0.0 0.0 0.01 0.61 0.57 99 1021.0
20260906024311 51 0.0 0.0 0.01 0.61 0.57 99 1020.9
20260906023810 51 0.0 0.0 0.01 0.61 0.57 99 1021.0
20260906023308 51 0.0 0.0 0.01 0.61 0.57 99 1021.1
20260906022806 50 0.0 0.0 0.01 0.61 0.57 99 1021.0
20260906022307 50 0.0 0.0 0.01 0.61 0.57 99 1020.9
20260906021804 50 0.0 0.0 0.02 0.61 0.57 99 1020.9
20260906021302 50 0.0 0.0 0.02 0.61 0.57 99 1020.8
20260906020801 50 0.0 0.0 0.02 0.61 0.57 99 1020.6
20260906020259 50 0.0 0.0 0.02 0.61 0.57 99 1020.7
20260906015757 51 0.0 0.0 0.03 0.62 0.57 99 1021.0
20260906015256 51 0.0 0.0 0.03 0.62 0.57 99 1021.1
20260906014754 51 0.0 0.0 0.04 0.62 0.57 99 1021.2
20260906014252 51 0.0 0.0 0.03 0.61 0.56 99 1021.2
20260906013750 51 0.0 0.0 0.03 0.61 0.56 99 1020.9
20260906013248 51 0.0 0.0 0.03 0.61 0.56 99 1020.9
20260906012746 51 0.0 0.0 0.04 0.61 0.56 99 1020.7
20260906012244 51 0.0 0.0 0.04 0.61 0.56 99 1020.7
20260906011742 50 0.0 0.0 0.04 0.60 0.55 99 1020.8
20260906011240 51 0.0 0.0 0.04 0.60 0.55 99 1020.8
20260906010738 50 0.0 0.0 0.05 0.60 0.55 99 1020.6
20260906010236 50 0.0 0.0 0.05 0.60 0.55 99 1020.5
20260906005734 50 0.0 0.0 0.05 0.60 0.55 99 1020.4
20260906005232 50 0.0 0.0 0.05 0.60 0.55 99 1020.4
20260906004730 51 0.0 0.0 0.03 0.58 0.53 99 1020.5
20260906004228 51 0.0 0.0 0.03 0.58 0.53 99 1020.3
20260906003725 51 0.0 0.0 0.04 0.58 0.53 99 1020.6
20260906003224 50 0.0 0.0 0.04 0.58 0.53 99 1020.3
20260906002722 50 0.0 0.0 0.04 0.57 0.52 99 1019.9
20260906002220 50 0.0 0.0 0.04 0.57 0.52 99 1019.9
20260906001718 50 0.0 0.0 0.04 0.57 0.52 99 1020.1
20260906001216 51 0.0 0.0 0.03 0.56 0.51 99 1020.2
20260906000714 51 0.0 0.0 0.03 0.56 0.51 99 1020.4
20260906000212 51 0.0 0.0 0.02 0.55 0.50 99 1020.1
20260905235711 51 0.0 0.0 0.02 0.55 0.50 99 1019.9
20260905235208 51 0.0 0.0 0.02 0.55 0.50 99 1019.8
20260905234706 51 0.0 0.0 0.03 0.55 0.50 99 1019.7
20260905234204 51 0.0 0.0 0.03 0.55 0.50 99 1019.9
20260905233702 51 0.0 0.0 0.02 0.54 0.49 99 1019.8
20260905233200 51 0.0 0.0 0.02 0.54 0.49 99 1019.7
20260905232658 51 0.0 0.0 0.03 0.54 0.49 99 1019.5
20260905232156 51 0.0 0.0 0.02 0.53 0.48 99 1019.4
20260905231654 51 0.0 0.0 0.03 0.53 0.48 99 1019.1
20260905231153 51 0.0 0.0 0.03 0.53 0.48 99 1018.8
20260905230651 51 0.0 0.0 0.03 0.53 0.48 99 1018.7
20260905230149 51 0.0 0.0 0.03 0.53 0.48 99 1018.5
20260905225648 51 0.0 0.0 0.03 0.53 0.48 99 1018.4
20260905225146 51 0.0 0.0 0.03 0.53 0.48 99 1018.4
20260905224644 51 0.0 0.0 0.02 0.52 0.47 99 1018.2
20260905224143 51 0.0 0.0 0.02 0.52 0.47 99 1018.4
20260905223641 51 0.0 0.0 0.02 0.52 0.47 99 1018.3
20260905223140 51 0.0 0.0 0.02 0.52 0.47 99 1018.2
20260905222638 51 0.0 0.0 0.02 0.52 0.47 99 1018.4
20260905222136 51 0.0 0.0 0.02 0.52 0.47 99 1018.3
20260905221635 51 0.0 0.0 0.00 0.50 0.45 99 1018.2
20260905221133 51 0.0 0.0 0.00 0.50 0.45 99 1018.0
20260905220631 51 0.0 0.0 0.00 0.50 0.45 99 1017.8
20260905220129 51 0.0 0.0 0.00 0.50 0.45 99 1017.5
20260905215628 51 0.0 0.0 0.00 0.51 0.45 99 1017.5
20260905215126 51 0.0 0.0 0.00 0.51 0.45 99 1017.5
20260905214625 51 0.0 0.0 0.00 0.51 0.45 99 1017.5
20260905214123 52 0.0 0.0 0.00 0.51 0.45 99 1017.3
20260905213621 51 0.0 0.0 0.01 0.51 0.45 99 1017.3
20260905213119 51 0.0 0.0 0.01 0.51 0.45 99 1017.5
20260905212617 51 0.0 0.0 0.03 0.51 0.45 99 1017.5
20260905212115 52 0.0 0.0 0.03 0.51 0.45 99 1017.7
20260905211614 52 0.0 0.0 0.03 0.51 0.45 99 1017.6
20260905211112 52 0.0 0.0 0.03 0.51 0.45 99 1017.6
20260905210610 51 0.0 0.0 0.03 0.51 0.45 99 1017.5
20260905210109 52 0.0 0.0 0.03 0.51 0.45 99 1017.1
20260905205607 52 0.0 0.0 0.03 0.58 0.45 99 1016.8
20260905205105 52 0.0 0.0 0.03 0.58 0.45 99 1017.5
20260905204603 52 0.0 0.0 0.03 0.58 0.45 99 1017.1
20260905204102 52 0.0 0.0 0.03 0.58 0.45 99 1017.0
20260905203600 52 0.0 0.0 0.03 0.58 0.45 99 1016.7
20260905203058 52 0.0 0.0 0.02 0.57 0.44 99 1017.0
20260905202557 52 0.0 0.0 0.01 0.56 0.43 99 1016.7
20260905202055 52 0.0 0.0 0.01 0.56 0.43 99 1016.7
20260905201553 52 0.0 0.0 0.00 0.55 0.42 99 1016.9
20260905201051 52 0.0 0.0 0.00 0.55 0.42 99 1016.7
20260905200550 52 0.0 0.0 0.00 0.55 0.42 99 1016.6
20260905200048 52 0.0 0.0 0.00 0.55 0.42 99 1016.5
20260905195546 52 0.0 0.0 0.00 0.56 0.42 99 1016.6
20260905195044 53 0.0 0.0 0.00 0.56 0.42 99 1016.5
20260905194542 53 0.0 0.0 0.00 0.56 0.42 99 1016.4
20260905194040 53 0.0 0.0 0.00 0.56 0.42 99 1016.3
20260905193539 53 0.0 0.0 0.00 0.56 0.42 99 1016.2
20260905193037 53 0.0 0.0 0.00 0.56 0.42 99 1016.2
20260905192535 53 0.0 0.0 0.00 0.56 0.42 99 1016.4
20260905192034 53 0.0 0.0 0.00 0.56 0.42 99 1016.5
20260905191532 53 0.0 0.0 0.00 0.56 0.42 99 1016.5
20260905191030 53 0.0 0.0 0.00 0.56 0.42 99 1016.4
20260905190528 53 0.0 0.0 0.00 0.56 0.42 99 1016.4
20260905190026 53 0.0 0.0 0.00 0.56 0.42 99 1016.3
20260905185525 54 0.0 0.0 0.00 0.56 0.42 99 1016.1
20260905185023 53 0.0 0.0 0.00 0.56 0.42 99 1016.4
20260905184522 53 0.0 0.0 0.01 0.56 0.42 99 1016.1
20260905184020 53 0.0 0.0 0.01 0.56 0.42 99 1016.3
20260905183518 54 0.0 0.0 0.01 0.56 0.42 99 1016.4
20260905183016 54 0.0 0.0 0.01 0.56 0.42 99 1016.2
20260905182514 54 0.0 0.0 0.01 0.56 0.42 99 1016.1
20260905182013 54 0.0 0.0 0.01 0.56 0.42 99 1016.2
20260905181511 54 0.0 0.0 0.02 0.56 0.42 99 1016.2
20260905181009 55 0.0 0.0 0.02 0.56 0.42 99 1016.1
20260905180508 55 0.0 0.0 0.02 0.56 0.42 99 1016.1
20260905180006 55 0.0 0.0 0.02 0.56 0.42 99 1016.1
20260905175504 55 0.0 0.0 0.04 0.67 0.42 99 1016.0
20260905175002 55 0.0 0.0 0.04 0.67 0.42 99 1016.1
20260905174500 55 0.0 0.0 0.04 0.66 0.41 99 1016.3
20260905173958 55 0.0 0.0 0.04 0.66 0.41 99 1016.4
20260905173457 55 0.0 0.0 0.04 0.66 0.41 99 1016.6
20260905172955 55 0.0 0.0 0.04 0.66 0.41 99 1016.5
20260905172454 55 0.0 0.0 0.04 0.66 0.41 99 1016.4
20260905171952 55 0.0 0.0 0.05 0.66 0.41 99 1016.1
20260905171450 55 0.0 0.0 0.04 0.65 0.40 99 1016.4
20260905170948 55 0.0 0.0 0.04 0.65 0.40 99 1016.2
20260905170447 55 0.0 0.0 0.04 0.65 0.40 99 1016.5
20260905165945 55 0.0 0.0 0.04 0.73 0.40 99 1016.3
20260905165443 55 0.0 0.0 0.04 0.73 0.40 99 1016.6
20260905164941 54 0.0 0.0 0.02 0.71 0.38 99 1016.8
20260905164439 54 0.0 0.0 0.01 0.70 0.37 99 1017.0
20260905163937 55 0.0 0.0 0.02 0.70 0.37 99 1016.8
20260905163436 55 0.0 0.0 0.02 0.70 0.37 99 1016.7
20260905162933 55 0.0 0.0 0.03 0.70 0.37 99 1016.5
20260905162432 55 0.0 0.0 0.03 0.70 0.37 99 1016.7
20260905161930 55 0.0 0.0 0.08 0.69 0.36 99 1016.9
20260905161428 55 0.0 0.0 0.08 0.69 0.36 99 1016.9
20260905160927 55 0.0 0.0 0.08 0.69 0.36 99 1016.9
20260905160425 55 0.0 0.0 0.08 0.69 0.36 99 1017.1
20260905155923 55 0.0 0.0 0.08 0.69 0.36 99 1017.1
20260905155422 55 0.0 0.0 0.08 0.69 0.36 99 1017.1
20260905154920 55 0.0 0.0 0.08 0.69 0.36 99 1017.3
20260905154418 56 0.0 0.0 0.08 0.69 0.36 99 1017.2
20260905153916 56 0.0 0.0 0.08 0.69 0.36 99 1017.2
20260905153415 56 0.0 0.0 0.08 0.69 0.36 99 1017.1
20260905152913 56 0.0 0.0 0.07 0.68 0.35 99 1017.1
20260905152411 55 0.0 0.0 0.07 0.68 0.35 99 1017.2
20260905151909 55 0.0 0.0 0.05 0.66 0.33 99 1016.9
20260905151407 55 0.0 0.0 0.01 0.62 0.30 99 1017.1
20260905150905 55 0.0 0.0 0.00 0.61 0.29 99 1017.2
20260905150403 55 0.0 0.0 0.00 0.61 0.29 99 1017.1
20260905145901 55 0.0 0.0 0.00 0.61 0.29 99 1017.2
20260905145359 56 0.0 0.0 0.00 0.61 0.29 99 1017.4
20260905144857 55 0.0 0.0 0.00 0.61 0.29 99 1017.4
20260905144355 56 0.0 0.0 0.00 0.61 0.29 99 1017.2
20260905143853 56 0.0 0.0 0.00 0.61 0.29 99 1017.3
20260905143351 56 0.0 0.0 0.00 0.61 0.29 99 1017.4
20260905142849 56 0.0 0.0 0.00 0.61 0.29 99 1017.6
20260905142347 57 0.0 0.0 0.00 0.61 0.29 99 1017.6
20260905141844 57 0.0 0.0 0.00 0.61 0.29 99 1017.7
20260905141342 57 0.0 0.0 0.00 0.61 0.29 99 1017.7
20260905140840 57 0.0 0.0 0.00 0.61 0.29 99 1017.6
20260905140338 57 0.0 0.0 0.00 0.61 0.29 99 1017.7
20260905135835 57 0.0 0.0 0.00 0.61 0.29 97 1017.7
20260905135332 58 0.0 0.0 0.00 0.61 0.29 96 1017.6
20260905134830 59 0.0 0.0 0.00 0.61 0.29 98 1017.5
20260905134327 58 0.0 0.0 0.00 0.61 0.29 99 1017.5
20260905133825 58 0.0 0.0 0.04 0.61 0.29 99 1017.7
20260905133323 58 0.0 0.0 0.04 0.61 0.29 99 1017.8
20260905132820 58 0.0 0.0 0.09 0.61 0.29 99 1018.0
20260905132318 57 0.0 0.0 0.09 0.61 0.29 99 1017.9
20260905131815 57 0.0 0.0 0.09 0.61 0.29 99 1017.9
20260905131312 57 0.0 0.0 0.09 0.61 0.29 99 1018.0
20260905130810 57 0.0 0.0 0.09 0.61 0.29 99 1018.0
20260905130307 57 0.0 0.0 0.09 0.61 0.29 99 1018.0
20260905125804 56 0.0 0.0 0.09 0.61 0.29 99 1017.9
20260905125305 56 0.0 0.0 0.09 0.61 0.29 99 1017.8
20260905124800 56 0.0 0.0 0.09 0.61 0.29 99 1017.9
20260905124257 55 0.0 0.0 0.09 0.61 0.29 99 1017.8
20260905123755 55 0.0 0.0 0.09 0.61 0.29 99 1017.6
20260905123252 55 0.0 0.0 0.07 0.59 0.27 99 1017.8
20260905122749 55 0.0 0.0 0.04 0.56 0.24 99 1017.8
20260905122247 55 0.0 0.0 0.00 0.52 0.20 99 1018.3
20260905121744 55 0.0 0.0 0.00 0.52 0.20 99 1017.7
20260905121241 56 0.0 0.0 0.00 0.52 0.20 99 1017.7
20260905120739 56 0.0 0.0 0.00 0.52 0.20 99 1017.5
20260905120236 56 0.0 0.0 0.00 0.52 0.20 99 1017.7
20260905115733 55 0.0 0.0 0.00 0.52 0.20 99 1017.3
20260905115230 55 0.0 0.0 0.00 0.52 0.20 99 1017.5
20260905114728 55 0.0 0.0 0.00 0.52 0.20 99 1017.8
20260905114226 55 0.0 0.0 0.00 0.52 0.20 99 1017.4
20260905113723 55 0.0 0.0 0.00 0.52 0.20 99 1017.7
20260905113221 54 0.0 0.0 0.00 0.52 0.20 99 1018.0
20260905112719 55 0.0 0.0 0.16 0.52 0.20 99 1018.1
20260905112217 55 0.0 0.0 0.16 0.52 0.20 99 1018.0
20260905111715 55 0.0 0.0 0.19 0.52 0.20 99 1018.0
20260905111212 55 0.0 0.0 0.19 0.52 0.20 99 1017.8
20260905110710 55 0.0 0.0 0.19 0.52 0.20 99 1017.7
20260905110209 55 0.0 0.0 0.19 0.52 0.20 99 1017.5
20260905105707 54 0.0 0.0 0.19 0.52 0.20 99 1017.4
20260905105206 55 0.0 0.0 0.19 0.52 0.20 99 1017.7
20260905104704 55 0.0 0.0 0.19 0.52 0.20 99 1017.5
20260905104202 55 0.0 0.0 0.19 0.52 0.20 99 1017.9
20260905103701 54 0.0 0.0 0.20 0.52 0.20 99 1017.9
20260905103159 54 0.0 0.0 0.20 0.52 0.20 99 1017.7
20260905102657 54 0.0 0.0 0.19 0.51 0.19 99 1016.9
20260905102156 54 0.0 0.0 0.10 0.42 0.10 99 1017.9
20260905101654 55 0.0 0.0 0.01 0.33 0.01 99 1018.7
20260905101152 55 0.0 0.0 0.01 0.33 0.01 99 1017.9
20260905100651 54 0.0 0.0 0.01 0.33 0.01 99 1017.7
20260905100149 54 0.0 0.0 0.01 0.33 0.01 99 1017.6
20260905095648 54 0.0 0.0 0.01 0.33 0.01 99 1016.6
20260905095146 54 0.0 0.0 0.01 0.33 0.01 99 1016.5
20260905094644 54 0.0 0.0 0.01 0.33 0.01 99 1016.5
20260905094142 54 0.0 0.0 0.01 0.33 0.01 99 1016.5
20260905093640 54 0.0 0.0 0.01 0.33 0.01 99 1016.5
20260905093139 54 0.0 0.0 0.00 0.32 0.00 99 1016.8
20260905092637 55 0.0 0.0 0.00 0.32 0.00 99 1016.6
20260905092136 54 0.0 0.0 0.00 0.32 0.00 99 1016.2
20260905091634 54 0.0 0.0 0.00 0.32 0.00 99 1016.0
20260905091132 54 0.0 0.0 0.00 0.32 0.00 99 1015.8
20260905090631 54 0.0 0.0 0.00 0.32 0.00 99 1015.2
20260905090129 54 0.0 0.0 0.00 0.32 0.00 99 1015.1
20260905085628 54 0.0 0.0 0.00 0.32 0.00 99 1015.3
20260905085126 54 0.0 0.0 0.00 0.32 0.00 99 1015.5
20260905084624 54 0.0 0.0 0.00 0.32 0.00 99 1015.7
20260905084123 54 0.0 0.0 0.00 0.32 0.00 99 1015.5
20260905083621 54 0.0 0.0 0.00 0.32 0.00 99 1015.5
20260905083120 54 0.0 0.0 0.00 0.32 0.00 99 1015.9
20260905082618 54 0.0 0.0 0.00 0.32 0.00 99 1015.9
20260905082117 54 0.0 0.0 0.00 0.32 0.00 99 1015.4
20260905081615 54 0.0 0.0 0.00 0.32 0.00 99 1015.7
20260905081114 54 0.0 0.0 0.00 0.32 0.00 99 1015.7
20260905080612 54 0.0 0.0 0.00 0.32 0.00 99 1016.1
20260905080110 54 0.0 0.0 0.00 0.32 0.00 99 1015.9
20260905075608 54 0.0 0.0 0.00 0.32 0.00 99 1016.1
20260905075107 55 0.0 0.0 0.00 0.32 0.00 99 1015.9
20260905074605 55 0.0 0.0 0.00 0.32 0.00 99 1016.0
20260905074103 54 0.0 0.0 0.00 0.32 0.00 99 1016.0
20260905073602 54 0.0 0.0 0.00 0.32 0.00 99 1015.7
20260905073100 54 0.0 0.0 0.00 0.32 0.00 99 1015.6
20260905072558 54 0.0 0.0 0.00 0.32 0.00 99 1015.5
20260905072057 54 0.0 0.0 0.00 0.32 0.00 99 1015.4
20260905071555 54 0.0 0.0 0.00 0.32 0.00 99 1015.5
20260905071053 54 0.0 0.0 0.00 0.32 0.00 99 1015.8
20260905070551 54 0.0 0.0 0.00 0.32 0.00 99 1015.9
20260905070049 54 0.0 0.0 0.00 0.32 0.00 99 1015.9
20260905065548 54 0.0 0.0 0.00 0.32 0.00 99 1015.8
20260905065046 55 0.0 0.0 0.00 0.32 0.00 99 1015.8
20260905064545 54 0.0 0.0 0.00 0.32 0.00 99 1016.0
20260905064043 54 0.0 0.0 0.00 0.32 0.00 99 1016.0
20260905063542 54 0.0 0.0 0.00 0.32 0.00 99 1016.3
20260905063040 54 0.0 0.0 0.00 0.32 0.00 99 1016.4
20260905062539 55 0.0 0.0 0.00 0.32 0.00 99 1016.4
20260905062037 55 0.0 0.0 0.00 0.32 0.00 99 1016.2
20260905061536 55 0.0 0.0 0.00 0.32 0.00 99 1016.3
20260905061034 54 0.0 0.0 0.00 0.32 0.00 99 1016.2
20260905060533 54 0.0 0.0 0.00 0.32 0.00 99 1016.2
20260905060031 54 0.0 0.0 0.00 0.32 0.00 99 1016.2
20260905055530 55 0.0 0.0 0.00 0.32 0.00 99 1016.2
20260905055028 55 0.0 0.0 0.00 0.32 0.00 99 1016.1
20260905054527 55 0.0 0.0 0.00 0.32 0.00 99 1016.2
20260905054025 55 0.0 0.0 0.00 0.32 0.00 99 1016.5
20260905053524 54 0.0 0.0 0.00 0.32 0.00 99 1016.6
20260905053022 55 0.0 0.0 0.00 0.32 0.00 99 1016.7
20260905052520 55 0.0 0.0 0.00 0.32 0.00 99 1016.7
20260905052019 55 0.0 0.0 0.00 0.32 0.00 99 1016.4
20260905051517 55 0.0 0.0 0.00 0.32 0.00 99 1016.3
20260905051016 55 0.0 0.0 0.00 0.32 0.00 99 1016.6
20260905050514 55 0.0 0.0 0.00 0.32 0.00 99 1016.8
20260905050012 55 0.0 0.0 0.00 0.32 0.00 99 1016.8
20260905045511 55 0.0 0.0 0.00 0.32 0.00 99 1016.5
20260905045009 55 0.0 0.0 0.00 0.32 0.00 99 1016.5
20260905044507 55 0.0 0.0 0.00 0.32 0.00 99 1016.5
20260905044006 55 0.0 0.0 0.00 0.32 0.00 99 1016.5
20260905043504 55 0.0 0.0 0.00 0.32 0.00 99 1016.7
20260905043002 55 0.0 0.0 0.00 0.32 0.00 99 1016.6
20260905042501 55 0.0 0.0 0.00 0.32 0.00 99 1016.5